Temp
13 12 12 12 12 12 11 11 10 9 8 8 8 7 7 6 6 6 5 6 6 5
15 14 12 12 11 11 10 10 10 9 9 8 8 7 7 6 6 5 5 5 5 5
13 14 13 12 11 12 11 10 9 9 8 7 7 7 6 6 5 5 5 5 5 5
11 12 12 12 12 12 11 10 10 9 8 8 7 6 6 5 5 5 5 5 4 4
10 10 11 10 11 12 11 10 10 9 8 7 7 6 6 6 5 5 4 4 4 4
10 8 8 10 10 10 10 11 11 9 9 8 7 6 6 5 5 5 4 4 4 4
6 9 9 8 7 8 9 8 9 11 9 7 7 7 6 6 5 4 4 4 3 3
6 7 7 8 7 6 7 9 7 6 7 7 6 6 6 5 5 4 4 3 3 2
2 3 5 5 6 6 5 5 5 6 5 4 5 6 5 5 4 4 3 3 2 2
2 2 2 3 2 3 4 4 4 4 4 5 3 3 3 3 3 3 3 2 1 1
1 1 1 1 2 -1 -1 1 2 3 3 3 2 2 2 2 2 2 2 2 1 1
-0 -0 -0 0 0 -0 -3 -3 -1 0 1 1 1 2 1 1 1 1 1 0 -0 -0
-1 -1 -1 -1 -0 -1 -2 -5 -4 -3 -2 -2 -1 -0 -0 -0 0 -0 -1 -1 -1 -1
-2 -2 -2 -3 -2 -2 -2 -3 -5 -5 -5 -3 -3 -2 -2 -2 -2 -2 -2 -2 -2 -3
Height
1408 1410 1413 1418 1420 1424 1428 1433 1439 1446 1451 1456 1461 1465 1470 1474 1479 1482 1485 1487 1488 1490
1401 1405 1408 1410 1416 1420 1424 1428 1432 1436 1441 1447 1450 1455 1460 1464 1468 1474 1477 1480 1482 1483
1399 1399 1400 1405 1409 1411 1416 1420 1424 1429 1432 1438 1445 1448 1449 1453 1458 1462 1466 1471 1473 1476
1396 1397 1397 1398 1401 1404 1408 1412 1415 1419 1424 1426 1433 1438 1441 1443 1449 1453 1457 1461 1466 1468
1391 1392 1392 1394 1394 1395 1397 1401 1405 1410 1414 1418 1422 1428 1432 1435 1438 1442 1446 1450 1458 1461
1383 1385 1381 1382 1385 1387 1389 1390 1393 1396 1400 1405 1408 1412 1419 1423 1428 1433 1438 1440 1447 1453
1375 1371 1369 1370 1373 1375 1376 1380 1383 1385 1388 1393 1396 1400 1406 1409 1418 1422 1428 1430 1435 1440
1363 1360 1360 1361 1362 1362 1363 1365 1370 1376 1378 1381 1386 1387 1390 1395 1402 1409 1414 1420 1425 1430
1360 1353 1353 1351 1349 1348 1352 1353 1358 1359 1364 1370 1372 1374 1380 1386 1390 1396 1399 1406 1413 1419
1359 1351 1348 1343 1339 1337 1338 1341 1343 1346 1349 1352 1363 1364 1371 1377 1377 1382 1387 1392 1402 1406
1355 1350 1344 1339 1333 1329 1329 1329 1330 1333 1336 1339 1348 1352 1359 1366 1368 1370 1374 1382 1390 1395
1349 1345 1342 1335 1329 1324 1322 1322 1321 1321 1322 1329 1332 1336 1345 1354 1356 1359 1361 1368 1376 1383
1347 1342 1337 1329 1325 1322 1318 1316 1316 1312 1315 1320 1321 1327 1335 1339 1342 1349 1353 1359 1364 1370
1338 1332 1327 1321 1320 1319 1315 1309 1306 1308 1309 1312 1316 1321 1326 1327 1332 1336 1343 1348 1353 1361
Wind_Speed
30 36 37 38 39 40 39 41 44 47 46 44 42 41 41 39 37 34 32 29 25 21
25 32 37 36 37 38 37 38 39 41 44 45 44 43 43 42 40 38 35 31 27 24
28 30 33 36 38 37 37 39 39 38 40 44 45 45 45 45 42 41 38 35 31 28
32 35 36 39 39 40 41 41 41 40 39 40 44 47 47 46 44 43 41 38 36 31
33 36 40 44 44 44 45 44 42 41 41 41 42 46 49 48 47 47 45 42 39 35
26 30 35 41 46 49 50 48 48 47 45 44 44 47 50 50 49 49 47 44 42 38
29 30 31 31 40 47 50 52 52 52 50 48 45 47 49 50 51 50 50 48 45 41
35 30 30 34 35 41 47 49 52 54 53 50 49 49 51 52 53 53 53 51 48 43
39 35 30 29 31 35 42 45 49 52 52 53 54 53 50 51 54 55 54 54 51 46
41 38 39 31 28 32 37 41 47 51 52 51 55 52 50 53 53 55 57 55 52 48
43 40 40 40 31 29 34 38 43 46 48 48 52 49 49 53 55 56 55 54 53 50
46 44 39 37 36 29 30 37 41 41 42 49 50 47 50 53 56 56 56 55 53 49
44 42 41 36 34 31 27 31 35 37 41 45 47 47 50 54 54 54 56 54 53 50
48 43 40 36 34 31 27 24 27 33 36 39 43 43 47 50 54 54 57 57 52 47
Wind_Direction
247 243 241 242 241 240 238 236 235 232 231 231 230 229 229 229 231 233 234 236 241 249
255 252 247 245 246 246 246 241 239 236 235 234 230 229 229 229 230 231 233 236 240 248
264 259 256 251 248 248 246 244 241 237 234 234 234 231 229 229 228 229 232 235 240 246
279 273 267 260 254 252 250 247 244 239 235 233 233 232 231 230 229 230 232 234 238 242
292 284 278 269 262 256 252 250 247 246 241 235 232 232 232 232 230 230 230 233 236 240
292 293 288 280 271 264 258 252 248 245 243 237 231 230 231 233 233 232 232 232 234 238
310 305 303 297 278 270 262 257 253 251 246 240 234 231 231 232 231 231 232 232 231 233
324 305 301 296 288 278 269 264 259 255 249 243 238 232 229 229 229 229 230 230 230 231
354 334 301 289 288 282 276 268 261 256 250 246 241 236 232 230 229 229 229 229 227 228
341 347 343 306 288 278 275 272 264 258 252 247 244 238 234 231 229 228 228 227 227 227
331 332 338 341 312 296 281 270 264 258 253 247 242 238 235 234 231 228 228 228 229 229
324 324 324 331 335 315 290 274 261 257 251 243 239 234 230 232 232 228 224 224 226 228
320 316 316 319 325 324 303 278 267 260 253 247 241 234 230 230 232 228 224 222 224 225
314 315 314 313 307 309 307 292 275 264 256 250 242 235 231 231 232 227 223 222 220 220